Location: ??????????
(54.8537°N, 38.8755°E)
Time: 09:56:05
(UTC+00:00)

Tiros 1 despin weight - Pass Details

Date: 16 September 2024
Orbit: 572 x 614 km, 48.2° (Epoch: 10 October)

Event Time Altitude Azimuth Distance (km) Brightness Sun altitude
Rises 02:19:30 0° 245° (WSW) 2,879 - -6.5°
Exits shadow 02:21:11 - 240° (WSW) 2,249 ? -6.2°
Reaches altitude 10° 02:21:57 10° 237° (WSW) 1,978 ? -6.1°
Maximum altitude 02:26:03 34° 172° (S) 1,018 ? -5.6°
Drops below altitude 10° 02:30:11 10° 108° (ESE) 1,983 ? -5.0°
Sets 02:32:38 0° 99° (E) 2,887 ? -4.6°
